Home > Time Zones > World Clock > Weather > Italy > Monza > Past weeks

Flag for Italy Weather past 2 weeks in Monza, Italy

Now
68 °F

Passing clouds.


Feels Like: 68 °F
Forecast: 62 / 69 °F
Wind: 9 mph from Southeast

Location: Milan / Linate

Current Time: Sep 17, 2014 at 10:23:33 AM

Latest Report: Sep 17, 2014 at 9:50 AM


Visibility: N/A

Pressure: 30.04 "Hg

Humidity: 73%

Dew point: 59 °F

Location of MonzaLocation

Historic Weather in Monza — Graph

°F

Monza temperature yesterday

Maximum temperature yesterday: 77 °F (at 3:50 PM)
Minimum temperature yesterday: 61 °F (at 5:50 AM)
Average temperature yesterday: 69 °F

Past Weeks' High & Low Weather Summary

 TemperatureHumidityPressure
High84 °F (Sep 8, 3:50 PM)100% (Sep 5, 6:50 AM)30.04 "Hg (Sep 5, 6:50 AM)
Low55 °F (Sep 13, 6:20 AM)30% (Sep 2, 3:50 PM)29.77 "Hg (Sep 11, 4:20 PM)
Average70 °F73%29.94 "Hg
* Reported Sep 2 8:20 AM — Sep 17 8:50 AM, Monza, Weather by CustomWeather, © 2014

Note: Actual official high and low records may vary slightly from our data, if they occured in-between our weather recording intervals... More about our weather records

Advertising

Monza weather history for previous 24 hours

 ConditionsComfort  
Time TempWeatherWind HumidityBarometerVisibility
8:50 AM
Sep 17
64 °FPassing clouds.9 mph83%30.01 "HgN/A
8:20 AM64 °FScattered clouds.5 mph83%30.01 "HgN/A
7:50 AM63 °FPassing clouds.3 mph88%30.01 "Hg5 mi
7:20 AM63 °FPassing clouds.3 mph88%30.01 "Hg4 mi
6:50 AM63 °FPassing clouds.5 mph88%30.01 "Hg5 mi
6:20 AM63 °FPassing clouds.2 mph88%30.01 "HgN/A
5:50 AM63 °FPassing clouds.3 mph88%30.01 "HgN/A
5:20 AM63 °FClear.5 mph88%30.01 "Hg10 mi
4:50 AM63 °FClear.3 mph88%30.01 "Hg10 mi
4:20 AM64 °FClear.5 mph83%30.01 "Hg10 mi
3:50 AM64 °FPassing clouds.6 mph83%30.01 "HgN/A
3:20 AM64 °FPassing clouds.6 mph83%30.01 "HgN/A
2:50 AM64 °FPassing clouds.6 mph83%30.01 "HgN/A
2:20 AM64 °FPassing clouds.6 mph83%30.01 "HgN/A
1:50 AM66 °FPassing clouds.5 mph83%30.01 "HgN/A
1:20 AM66 °FPassing clouds.3 mph83%30.01 "HgN/A
12:50 AM66 °FClear.3 mph83%30.01 "Hg10 mi
12:20 AM66 °FClear.5 mph83%30.01 "Hg10 mi
11:50 PM
Sep 16
66 °FPassing clouds.3 mph83%30.01 "HgN/A
11:20 PM66 °FPassing clouds.1 mph83%30.01 "HgN/A
10:50 PM66 °FClear.No wind83%30.01 "Hg10 mi
10:20 PM68 °FPassing clouds.3 mph78%30.01 "HgN/A
9:50 PM70 °FClear.3 mph73%30.01 "Hg10 mi
9:20 PM70 °FPassing clouds.5 mph73%30.01 "HgN/A
8:50 PM72 °FPassing clouds.5 mph65%29.98 "HgN/A
8:20 PM72 °FPassing clouds.3 mph69%29.98 "HgN/A
7:50 PM72 °FPassing clouds.3 mph69%29.98 "HgN/A
7:20 PM73 °FPassing clouds.5 mph61%29.98 "Hg5 mi
6:50 PM73 °FPassing clouds.6 mph61%29.98 "Hg5 mi
6:20 PM75 °FPassing clouds.6 mph57%29.95 "HgN/A
5:50 PM75 °FScattered clouds.5 mph57%29.98 "HgN/A
5:20 PM75 °FScattered clouds.5 mph57%29.98 "HgN/A
4:50 PM77 °FScattered clouds.5 mph54%29.98 "HgN/A
4:20 PM77 °FScattered clouds.6 mph54%29.98 "HgN/A
3:50 PM77 °FScattered clouds.5 mph54%29.98 "HgN/A
3:20 PM75 °FScattered clouds.6 mph61%29.98 "HgN/A
2:50 PM75 °FScattered clouds.5 mph61%29.98 "HgN/A
2:20 PM75 °FScattered clouds.6 mph61%30.01 "HgN/A
1:50 PM73 °FScattered clouds.6 mph65%30.01 "HgN/A
1:20 PM73 °FScattered clouds.6 mph65%30.01 "HgN/A
12:50 PM73 °FScattered clouds.6 mph65%30.01 "HgN/A
12:20 PM73 °FPartly sunny.5 mph69%30.01 "HgN/A
11:50 AM72 °FPartly sunny.5 mph73%30.04 "HgN/A
11:20 AM70 °FPartly sunny.5 mph78%30.04 "HgN/A
10:50 AM70 °FScattered clouds.3 mph78%30.04 "Hg5 mi
10:20 AM68 °FScattered clouds.3 mph83%30.04 "Hg4 mi
Weather by CustomWeather, © 2014

See weather overviewHow to use our weather pages